EHI
7 10 12 11 9 9 9 8 7 8 8 8 7 7 8 9 7 5 5 6 9 9 9 8 7 6 6 6 4 3 4 3 2 3 3 3 3 3 3 2 2 2 2
8 10 12 12 10 9 9 9 9 10 9 9 8 8 9 10 9 7 5 6 8 10 10 9 8 8 8 7 5 4 3 2 2 3 4 3 3 3 3 3 3 2 2
10 11 12 12 10 10 12 14 13 11 9 8 7 8 10 11 11 9 7 7 9 11 11 11 11 11 11 10 8 7 5 2 1 3 4 4 3 3 3 3 3 3 2
11 12 13 12 10 10 13 15 14 11 9 7 8 9 10 12 12 11 10 10 10 11 11 12 13 14 13 12 10 8 5 1 1 2 3 3 3 3 3 3 3 3 3
8 10 12 12 11 11 12 12 11 10 9 8 8 8 9 10 11 11 10 11 12 12 12 12 13 14 14 12 10 8 4 1 0 1 2 3 3 3 4 3 3 2 2
7 10 11 10 10 10 10 9 9 9 9 7 7 7 7 9 9 10 9 10 11 12 12 12 11 11 12 12 11 9 5 1 1 1 3 3 3 3 4 3 2 1 1
9 11 10 10 11 12 10 9 8 7 7 6 6 5 6 7 7 8 9 10 10 10 12 14 13 13 14 13 13 11 7 3 3 3 4 4 3 2 3 3 2 1 0
12 12 12 11 13 13 12 12 11 9 7 7 7 7 7 8 7 7 9 10 9 9 11 15 19 20 18 16 14 11 7 5 4 5 5 5 3 1 1 2 3 2 1
14 15 14 12 12 13 15 17 17 15 11 10 11 11 10 9 8 7 8 10 11 11 12 15 21 25 24 21 15 9 7 6 5 5 6 5 4 3 2 1 2 2 2
15 16 15 12 11 13 16 17 18 19 18 15 14 13 11 10 10 9 8 9 11 12 12 14 17 23 25 24 18 11 9 8 7 7 7 6 6 6 3 1 1 2 2
19 18 17 16 13 14 14 14 15 18 19 18 14 13 12 12 12 10 7 7 9 11 13 15 17 20 22 22 19 15 11 8 7 8 8 8 7 5 3 1 0 1 1
24 24 23 21 18 17 16 14 13 14 17 17 15 12 12 12 13 11 7 6 8 11 14 16 18 19 20 19 18 15 12 7 4 4 6 6 5 3 3 2 1 1 0
25 27 27 25 24 23 22 19 15 13 14 15 15 13 11 11 12 13 11 8 8 11 14 16 17 17 17 17 16 14 11 6 2 1 2 2 2 2 2 2 2 2 1
26 27 26 25 25 25 23 21 17 14 14 15 15 16 15 12 11 13 13 10 9 11 15 16 15 14 14 15 15 13 10 5 1 0 0 0 1 1 1 1 1 1 1
26 26 25 23 22 21 20 19 16 14 14 15 15 16 16 14 12 11 11 10 8 8 13 16 15 13 12 13 13 12 9 4 0 0 0 0 0 0 0 0 0 0 0
25 24 24 22 20 19 18 17 15 15 14 13 12 13 13 12 11 9 9 10 8 7 10 13 14 14 13 13 12 11 9 4 1 0 0 0 0 0 0 0 0 0 0
23 21 20 21 21 20 18 16 14 14 14 12 9 9 10 11 10 8 8 9 10 11 12 12 13 15 15 14 13 12 10 6 3 2 0 0 0 0 0 0 0 0 0
19 17 17 19 20 20 18 14 12 13 14 13 9 9 10 8 8 8 7 7 9 12 14 13 13 14 15 15 14 13 11 7 4 2 0 0 0 0 0 0 0 0 0
14 13 14 17 19 20 18 15 12 13 17 17 14 11 9 7 8 8 8 8 9 12 15 14 12 11 13 14 13 13 11 8 5 2 0 0 0 0 0 0 0 0 0
9 10 13 15 16 16 16 15 13 14 17 19 17 13 9 8 10 10 10 10 11 13 16 15 13 11 12 12 13 12 11 9 6 2 0 0 0 0 0 0 0 0 0
7 9 12 13 13 11 10 11 12 13 14 15 15 13 10 9 10 11 9 8 10 13 16 16 14 13 13 12 12 11 11 10 8 5 1 0 0 0 0 0 0 0 0
9 12 14 14 11 7 5 6 8 9 9 9 10 10 9 8 10 10 8 5 5 8 13 14 13 13 14 14 13 12 12 12 10 7 4 2 1 0 0 0 0 0 0
15 16 17 16 12 7 3 2 3 5 5 5 5 7 7 8 10 12 10 6 5 6 9 11 11 13 15 16 16 14 13 12 11 9 7 5 3 1 0 0 0 0 0
17 19 19 19 14 8 4 1 1 3 3 3 3 5 7 8 8 10 13 11 10 9 8 8 9 11 12 14 15 16 14 12 10 8 7 6 4 1 0 0 0 0 0
16 17 18 17 14 9 5 1 1 2 2 1 2 5 7 7 6 8 12 14 14 12 9 7 7 8 9 9 12 14 14 11 8 6 6 6 3 1 0 0 0 0 0
14 14 15 14 12 11 6 2 0 1 0 0 1 4 6 4 4 6 11 14 14 12 9 7 6 7 7 7 9 13 14 11 7 5 5 5 2 0 0 0 0 0 0
Wind_Speed
4 4 3 3 3 3 3 3 3 3 2 3 3 4 4 5 5 5 5 9 10 10 9 8 7 6 6 6 6 5 5 5 6 6 5 5 6 6 6 6 6 6 6
3 3 3 3 2 3 3 2 3 2 2 3 4 3 3 4 4 4 5 6 9 10 9 8 8 7 6 6 6 5 5 5 5 5 4 4 4 5 6 6 7 6 6
3 2 2 2 2 2 3 2 2 2 3 3 3 3 2 3 3 4 4 4 6 8 9 8 8 7 6 6 6 6 5 5 5 5 4 3 4 4 5 6 7 7 7
3 2 2 2 2 1 1 2 2 2 2 2 2 2 2 2 3 3 3 4 4 5 7 9 8 7 6 6 6 5 5 5 5 5 4 4 4 5 5 6 6 6 7
3 2 2 2 1 1 1 2 2 1 1 1 2 2 2 2 3 3 4 5 5 5 5 7 8 7 7 6 6 6 5 5 5 5 5 5 4 4 5 6 6 7 7
2 1 2 2 2 2 2 2 1 1 0 0 0 1 1 2 3 2 3 4 4 6 6 6 6 5 7 6 6 6 5 5 4 5 5 5 5 4 4 5 6 6 6
3 2 2 2 2 2 2 1 1 0 0 0 1 0 1 2 2 2 2 2 3 4 5 5 5 4 4 6 5 5 4 4 4 5 5 5 5 5 5 5 5 5 6
2 2 2 2 2 2 1 1 1 0 1 1 1 0 0 1 0 2 3 2 3 3 4 5 4 4 4 3 4 5 4 3 3 3 3 4 5 5 5 6 6 6 6
2 3 3 2 2 1 1 0 1 1 1 1 0 0 0 0 0 0 1 2 2 2 2 3 4 4 4 4 4 5 5 3 3 3 2 2 4 4 5 6 6 7 7
2 2 3 2 2 2 1 1 1 1 1 1 1 0 0 1 1 0 1 1 1 2 1 2 3 3 4 4 4 5 5 4 3 2 2 1 1 2 2 4 6 6 6
2 2 2 2 2 1 1 2 2 2 2 2 1 1 1 1 1 2 1 1 0 1 1 2 3 3 4 4 3 5 6 5 3 2 1 0 1 2 2 3 4 5 6
1 2 2 2 1 1 1 1 1 1 1 2 2 2 1 1 1 0 1 1 1 1 1 1 2 3 3 4 4 7 7 6 4 3 2 1 1 1 2 2 1 2 3
1 1 2 1 1 1 1 1 0 1 1 1 2 2 2 1 1 1 0 0 0 1 0 1 2 2 3 4 4 8 6 6 4 3 3 2 1 1 1 1 1 0 1
1 1 2 1 2 2 1 1 1 0 1 1 2 2 2 1 1 1 0 0 1 1 0 1 2 2 2 3 4 6 4 5 4 3 3 2 2 1 1 1 1 1 0
1 1 1 1 1 2 2 1 1 1 1 1 1 1 1 1 1 1 1 1 0 1 1 0 1 2 1 3 4 3 4 5 5 4 4 3 2 1 1 0 0 0 1
2 2 1 1 1 1 1 1 1 1 1 1 1 1 1 1 1 1 1 1 1 0 1 0 1 2 2 2 4 2 3 6 6 5 4 4 2 2 1 0 0 0 1
1 2 1 1 1 1 1 1 1 0 0 1 1 0 1 1 2 2 1 1 1 1 0 0 1 1 1 1 2 1 2 3 4 6 6 5 3 2 2 2 2 2 2
1 1 1 1 1 1 1 1 2 1 0 0 1 1 1 1 1 2 2 2 1 0 0 1 1 1 1 1 1 1 1 2 3 7 7 6 5 3 3 3 3 3 2
1 1 1 1 1 1 1 1 1 1 0 0 0 0 1 1 1 1 2 2 2 2 0 1 1 1 0 0 0 1 1 1 2 5 7 6 5 5 4 4 4 3 3
0 0 1 1 1 1 1 1 1 1 1 1 1 1 1 0 0 1 1 2 2 2 1 1 1 1 1 0 0 1 1 1 1 2 4 5 5 5 4 5 5 4 3
1 1 1 1 1 1 1 1 1 1 1 1 1 1 0 1 2 1 1 2 2 2 2 2 1 1 0 0 1 1 2 2 2 1 2 3 3 2 3 4 5 5 4
1 1 1 1 2 2 2 2 2 1 1 1 1 1 1 1 1 2 1 1 2 2 2 2 2 2 1 1 1 2 2 1 2 1 1 2 3 3 3 3 6 6 6
1 2 2 1 0 1 2 3 3 2 2 2 2 1 2 1 1 0 2 4 3 4 4 2 3 3 2 1 1 2 2 2 2 1 1 2 1 2 2 4 9 8 6
1 2 2 1 1 0 1 1 2 2 2 2 2 2 2 1 2 2 3 3 3 3 3 3 3 3 3 2 2 3 3 3 3 2 1 1 1 1 2 3 8 8 7
2 2 2 2 2 1 1 1 1 2 2 3 3 2 2 1 2 2 2 3 3 3 4 4 5 5 6 5 3 2 2 2 3 2 1 1 1 0 1 2 5 9 8
2 2 2 2 2 2 2 2 2 2 2 3 2 2 1 1 1 1 2 3 4 4 4 5 5 6 6 6 7 4 3 2 2 2 0 1 1 0 1 1 2 3 4
Wind_Direction
62 61 54 61 72 84 91 86 87 96 94 97 93 85 86 97 111 118 126 140 142 144 149 152 152 156 169 170 172 171 174 174 181 187 191 199 198 197 195 193 193 193 194
75 82 78 70 73 80 84 88 97 96 81 79 78 78 83 96 107 121 132 139 144 148 152 155 156 159 162 166 168 169 171 170 171 180 188 198 198 200 198 198 199 202 203
80 80 90 95 89 96 104 91 82 93 97 93 94 99 99 108 122 128 141 145 148 154 160 161 160 162 166 169 171 173 172 170 171 177 186 189 191 197 201 205 209 210 211
71 68 80 89 85 89 98 109 89 76 88 100 108 119 124 134 143 153 153 153 155 158 167 169 168 168 174 178 178 178 180 182 184 186 189 197 205 208 208 209 211 210 213
74 64 70 82 113 96 77 80 75 72 93 124 147 159 155 155 161 164 157 161 162 156 162 169 173 172 175 175 178 182 184 190 194 195 201 207 209 212 209 210 215 214 215
64 45 92 61 69 81 73 65 59 42 72 252 127 109 168 169 161 160 166 164 161 165 168 160 166 178 175 175 178 182 186 191 193 196 204 211 215 213 204 209 214 216 214
48 38 62 77 68 78 94 117 100 248 305 85 39 21 219 176 154 152 165 156 157 163 152 157 167 167 173 183 182 182 188 197 205 211 212 214 218 215 211 210 209 209 212
48 65 67 71 77 77 67 76 47 292 258 126 134 328 83 118 135 167 154 162 160 158 154 158 160 158 165 161 168 176 182 183 184 189 199 211 218 220 218 216 215 216 217
60 40 41 38 63 84 77 32 351 359 331 318 179 153 157 143 271 99 145 138 142 145 150 154 149 150 151 142 150 165 173 177 179 181 179 212 221 220 227 226 222 224 224
85 74 66 41 22 18 34 323 50 326 297 284 290 263 210 171 149 130 311 98 136 128 139 146 131 130 127 129 131 139 157 166 176 177 182 195 191 205 226 233 233 228 225
98 85 76 58 41 15 6 7 26 355 337 324 314 324 298 269 245 173 182 159 271 153 147 140 133 129 128 136 132 127 144 147 148 145 143 201 233 230 235 239 242 230 218
108 101 91 70 58 359 17 2 350 346 334 339 334 330 310 317 327 46 164 191 190 220 145 139 126 124 129 120 113 115 134 136 131 122 114 86 8 298 266 246 236 234 219
67 50 66 62 41 8 20 345 332 327 331 330 331 325 343 354 350 1 75 254 240 235 180 133 112 108 114 114 117 125 135 141 141 138 130 117 91 44 33 34 24 320 251
66 57 62 51 28 12 8 358 344 287 337 318 318 334 335 347 345 4 53 12 294 286 47 102 99 95 92 112 126 138 136 145 153 152 140 130 114 91 58 29 14 357 275
76 72 62 53 36 17 4 4 351 350 1 318 319 337 342 328 343 347 13 42 353 285 272 93 85 79 85 106 128 141 136 151 157 154 148 145 138 128 127 222 263 266 229
29 42 50 45 28 14 6 351 326 7 358 331 319 340 336 332 348 348 5 343 329 268 299 346 77 86 59 85 129 139 142 156 159 159 158 160 162 157 144 110 107 127 114
26 20 16 17 12 354 338 328 322 12 349 322 308 344 335 343 336 332 335 349 7 11 300 330 53 82 101 98 125 176 170 165 164 171 166 166 164 164 159 138 114 107 98
23 16 0 347 331 335 330 319 315 2 10 347 335 358 334 327 349 346 340 342 348 4 178 269 242 210 175 169 163 225 197 170 170 171 170 168 167 168 162 152 142 133 118
12 7 329 319 318 314 305 320 318 331 347 329 309 285 302 338 351 330 323 331 321 316 237 247 250 202 165 134 111 270 268 219 199 165 170 171 177 176 178 169 159 142 131
351 317 311 306 303 310 344 0 327 309 325 339 317 297 288 304 297 295 285 301 309 315 305 281 266 235 183 153 183 280 291 269 260 177 162 168 179 180 174 161 155 151 148
278 299 305 299 278 272 313 347 306 264 326 323 311 293 261 144 102 39 326 322 321 322 311 300 289 302 321 76 260 255 267 264 261 180 155 173 171 180 176 168 160 160 162
258 267 264 285 294 302 11 11 352 309 270 266 276 287 226 165 164 186 235 295 303 286 295 304 301 289 291 289 272 279 278 285 285 240 169 223 176 182 183 171 171 167 170
238 250 253 261 301 341 15 19 356 326 296 276 271 280 280 298 24 268 254 246 256 264 251 251 275 282 287 287 269 280 281 278 270 256 228 252 199 180 181 167 172 173 174
262 263 258 242 200 281 0 7 332 287 283 270 257 244 244 286 303 317 285 272 257 252 249 239 242 258 261 256 253 256 267 269 264 254 181 247 231 203 143 148 175 175 180
262 254 260 246 215 198 248 309 303 273 274 276 259 259 244 247 301 319 290 279 279 278 267 262 253 252 249 249 254 267 265 266 277 255 190 231 260 203 163 159 181 189 190
279 270 259 246 230 212 223 239 257 257 265 274 262 250 233 214 268 280 271 274 275 279 287 284 265 253 240 234 227 223 233 241 271 275 196 209 240 282 250 179 164 184 200